York, PA

3:48 AM EST on December 08, 2019 (GMT -0500)
York

Weather History for KTHV - October, 2019

Change the Weather History Date:

Monday, October 21, 2019

  Actual Average Record
Temperature  
Mean Temperature 58 °F -  
Max Temperature 66 °F 0 °F 80 °F (2007)
Min Temperature 50 °F - 30 °F (2008)
Degree Days  
Heating Degree Days 7    
Growing Degree Days 8 (Base 50)    
Moisture  
Dew Point 48 °F    
Average Humidity 77    
Maximum Humidity 88    
Minimum Humidity 51    
Precipitation  
Precipitation 0.00 in - - ()
Sea Level Pressure  
Sea Level Pressure 30.06 in    
Wind  
Wind Speed 4 mph ()    
Max Wind Speed 9 mph    
Max Gust Speed -    
Visibility 9.9 miles    
Events      
Averages and records for this station are not official NWS values.
T = Trace of Precipitation, MM = Missing Value Source: Averaged Metar Reports

Daily Weather History Graph

Daily Weather History Graph

Search for Another Location

Airport or City:

Astronomy

Oct. 21, 2019 Rise Set
Actual Time 7:23 AM EDT 6:19 PM EDT
Civil Twilight 6:56 AM EDT 6:47 PM EDT
Nautical Twilight 6:24 AM EDT 7:18 PM EDT
Astronomical Twilight 5:53 AM EDT 7:49 PM EDT
Moon No Moon Rise 2:40 PM EDT (10/21)
Length of Visible Light 11h 50m
Length of Day
10h 55m
Waning Gibbous, 48% of the Moon is Illuminated
Oct 21
Waning Gibbous
Oct 27
New
Nov 4
First Quarter
Nov 12
Full
Nov 19
Last Quarter

Hourly Weather History & Observations

Time (EDT) Temp. Dew Point Humidity Pressure Visibility Wind Dir Wind Speed Gust Speed Precip Events Conditions
12:49 AM 51.8 °F 48.2 °F 88% 30.00 in 9.0 mi North 6.9 mph - N/A   Overcast
12:53 AM 52.0 °F 48.0 °F 86% 30.01 in 9.0 mi North 6.9 mph - N/A   Overcast
1:53 AM 52.0 °F 48.0 °F 86% 30.02 in 10.0 mi North 9.2 mph - N/A   Overcast
2:53 AM 52.0 °F 48.0 °F 86% 30.02 in 10.0 mi North 5.8 mph - N/A   Overcast
3:53 AM 53.1 °F 46.9 °F 80% 30.03 in 10.0 mi North 5.8 mph - N/A   Overcast
4:09 AM 52.0 °F 48.0 °F 86% 30.02 in 10.0 mi North 4.6 mph - N/A   Overcast
4:53 AM 52.0 °F 48.0 °F 86% 30.05 in 10.0 mi NNW 3.5 mph - N/A   Overcast
5:53 AM 52.0 °F 46.9 °F 83% 30.06 in 10.0 mi North 5.8 mph - N/A   Overcast
6:31 AM 52.0 °F 46.9 °F 83% 30.05 in 10.0 mi NE 4.6 mph - N/A   Overcast
6:53 AM 52.0 °F 46.9 °F 83% 30.07 in 10.0 mi North 5.8 mph - N/A   Overcast
7:53 AM 51.1 °F 46.0 °F 83% 30.08 in 10.0 mi NE 5.8 mph - N/A   Overcast
8:53 AM 52.0 °F 46.9 °F 83% 30.11 in 10.0 mi NE 5.8 mph - N/A   Overcast
9:23 AM 53.1 °F 46.9 °F 80% 30.10 in 10.0 mi Variable 3.5 mph - N/A   Overcast
9:53 AM 54.0 °F 46.9 °F 77% 30.12 in 10.0 mi NE 4.6 mph - N/A   Overcast
10:43 AM 55.9 °F 46.9 °F 72% 30.12 in 10.0 mi ENE 5.8 mph - N/A   Scattered Clouds
10:53 AM 57.0 °F 46.9 °F 69% 30.12 in 10.0 mi Calm Calm - N/A   Scattered Clouds
3:53 PM 66.0 °F 48.0 °F 52% 30.04 in 10.0 mi Calm Calm - N/A   Clear
4:53 PM 66.9 °F 48.0 °F 51% 30.05 in 10.0 mi Calm Calm - N/A   Clear
5:53 PM 64.0 °F 48.0 °F 56% 30.05 in 10.0 mi Calm Calm - N/A   Clear
6:53 PM 54.0 °F 48.0 °F 80% 30.06 in 10.0 mi Calm Calm - N/A   Clear
7:53 PM 50.0 °F 46.0 °F 86% 30.07 in 10.0 mi Calm Calm - N/A   Clear
8:53 PM 57.0 °F 48.0 °F 72% 30.07 in 10.0 mi Variable 3.5 mph - N/A   Clear
9:53 PM 55.9 °F 48.0 °F 75% 30.07 in 10.0 mi SE 5.8 mph - N/A   Clear
10:53 PM 57.0 °F 48.0 °F 72% 30.08 in 10.0 mi Variable 4.6 mph - N/A   Clear
11:38 PM 57.0 °F 48.9 °F 74% 30.04 in 10.0 mi ESE 5.8 mph - N/A   Overcast
11:53 PM 57.0 °F 50.0 °F 77% 30.06 in 10.0 mi ESE 8.1 mph - N/A   Mostly Cloudy